Flag for U.S.A. Weather past 2 weeks in San Jose, California, U.S.A.

Now
50 °F

Partly cloudy.


Feels Like: 47 °F
Forecast: 50 / 76 °F
Wind: 7 mph from Southeast

Location: San Jose International Airport

Current Time: Apr 19, 2015 at 7:37:46 AM

Latest Report: Apr 19, 2015 at 6:53 AM


Visibility: 8 mi

Pressure: 29.97 "Hg

Humidity: 89%

Dew point: 47 °F

Location of San JoseLocation

Historic Weather in San Jose — Graph

°F

San Jose temperature yesterday

Maximum temperature yesterday: 74 °F (at 1:53 PM)
Minimum temperature yesterday: 51 °F (at 3:53 AM)
Average temperature yesterday: 61 °F

Past Weeks' High & Low Weather Summary

 TemperatureHumidityPressure
High80 °F (Apr 16, 4:53 PM)100% (Apr 7, 6:53 AM)30.33 "Hg (Apr 7, 6:53 AM)
Low42 °F (Apr 6, 5:53 AM)16% (Apr 16, 4:53 PM)29.79 "Hg (Apr 7, 4:53 AM)
Average58 °F56%30.03 "Hg
* Reported Apr 4 5:53 AM — Apr 19 5:53 AM, San Jose, Weather by CustomWeather, © 2015

Note: Actual official high and low records may vary slightly from our data, if they occured in-between our weather recording intervals... More about our weather records

Advertising

San Jose weather history for previous 24 hours

 ConditionsComfort  
Time TempWeatherWind HumidityBarometerVisibility
5:53 AM
Sun, Apr 19
51 °FPassing clouds.6 mph83%29.96 "Hg10 mi
4:53 AM51 °FClear.6 mph83%29.96 "Hg10 mi
3:53 AM53 °FClear.6 mph77%29.95 "Hg10 mi
2:53 AM52 °FClear.6 mph80%29.95 "Hg10 mi
1:53 AM55 °FPassing clouds.No wind83%29.95 "Hg10 mi
12:53 AM54 °FClear.3 mph86%29.95 "Hg10 mi
11:53 PM
Sat, Apr 18
55 °FClear.No wind87%29.95 "Hg10 mi
10:53 PM55 °FClear.5 mph83%29.95 "Hg10 mi
9:53 PM57 °FClear.7 mph83%29.96 "Hg10 mi
8:53 PM60 °FClear.8 mph75%29.94 "Hg10 mi
7:53 PM62 °FPassing clouds.8 mph67%29.92 "Hg10 mi
6:53 PM67 °FPassing clouds.9 mph57%29.91 "Hg10 mi
5:53 PM70 °FPassing clouds.12 mph49%29.92 "Hg10 mi
4:53 PM71 °FSunny.14 mph53%29.92 "Hg10 mi
3:53 PM74 °FSunny.15 mph45%29.93 "Hg10 mi
2:53 PM74 °FSunny.8 mph43%29.94 "Hg10 mi
1:53 PM74 °FSunny.5 mph41%29.96 "Hg10 mi
12:53 PM72 °FPassing clouds.No wind41%29.99 "Hg10 mi
11:53 AM66 °FPassing clouds.3 mph54%30.02 "Hg10 mi
10:53 AM64 °FPassing clouds.No wind49%30.03 "Hg10 mi
9:53 AM60 °FPassing clouds.No wind60%30.03 "Hg10 mi
8:53 AM56 °FPassing clouds.No wind75%30.04 "Hg10 mi
7:53 AM54 °FPartly sunny.No wind80%30.06 "Hg9 mi
Weather by CustomWeather, © 2015

See weather overviewHow to use our weather pages